When you browse on this site, cookies collect data to enhance your experience and personalize the content and advertising you see.
Visit our Privacy Policy to learn more. By continuing to use the site, you agree to this use of cookies and data.
  • In Spain
  • List of Countries
  • For 7 days
  • Water Temperature
  • Weather Map
  • Weather Widgets
  • user-avatar
    Login

    Hourly Weather Chervonyi Brid

    Today, 21 September, Saturday

    Time Temperature Precipitation Wind Pressure Humidity
    00:00 +4°C° 0 mm 3 mps 751 mmHg 83%
    01:00 +4°C° 0 mm 4 mps 751 mmHg 83%
    02:00 +3°C° 0 mm 4 mps 751 mmHg 85%
    03:00 +3°C° 0 mm 4 mps 752 mmHg 87%
    04:00 +3°C° 0 mm 4 mps 752 mmHg 88%
    05:00 +1°C° 0 mm 4 mps 752 mmHg 90%
    06:00 +3°C° 0 mm 4 mps 752 mmHg 87%
    07:00 +3°C° 0 mm 5 mps 752 mmHg 83%
    08:00 +6°C° 0 mm 5 mps 753 mmHg 78%
    09:00 +7°C° 0 mm 5 mps 753 mmHg 68%
    10:00 +9°C° 0 mm 5 mps 753 mmHg 58%
    11:00 +10°C° 0 mm 5 mps 753 mmHg 48%
    12:00 +12°C° 0 mm 5 mps 753 mmHg 43%
    13:00 +13°C° 0 mm 5 mps 753 mmHg 37%
    14:00 +14°C° 0 mm 5 mps 753 mmHg 32%
    15:00 +13°C° 0 mm 4 mps 752 mmHg 33%
    16:00 +13°C° 0 mm 4 mps 752 mmHg 34%
    17:00 +13°C° 0 mm 3 mps 752 mmHg 35%
    18:00 +12°C° 0 mm 3 mps 752 mmHg 39%
    19:00 +11°C° 0 mm 3 mps 752 mmHg 43%
    20:00 +10°C° 0 mm 3 mps 752 mmHg 48%
    21:00 +10°C° 0 mm 4 mps 751 mmHg 55%
    22:00 +9°C° 0 mm 5 mps 751 mmHg 63%
    23:00 +10°C° 0 mm 5 mps 751 mmHg 70%

    Tomorrow, 22 September, Sunday

    Time Temperature Precipitation Wind Pressure Humidity
    00:00 +10°C° 0 mm 5 mps 751 mmHg 72%
    01:00 +10°C° 0 mm 5 mps 750 mmHg 73%
    02:00 +10°C° 0 mm 6 mps 750 mmHg 75%
    03:00 +10°C° 0 mm 6 mps 750 mmHg 75%
    04:00 +11°C° 0 mm 6 mps 749 mmHg 75%
    05:00 +11°C° 0 mm 6 mps 749 mmHg 75%
    06:00 +11°C° 0 mm 6 mps 749 mmHg 71%
    07:00 +12°C° 0 mm 7 mps 749 mmHg 66%
    08:00 +13°C° 0 mm 8 mps 749 mmHg 62%
    09:00 +15°C° 0 mm 8 mps 749 mmHg 58%
    10:00 +16°C° 0 mm 7 mps 749 mmHg 55%
    11:00 +18°C° 0 mm 7 mps 749 mmHg 51%
    12:00 +20°C° 0 mm 7 mps 749 mmHg 48%
    13:00 +21°C° 0 mm 7 mps 749 mmHg 46%
    14:00 +21°C° 0 mm 7 mps 748 mmHg 43%
    15:00 +21°C° 0 mm 6 mps 748 mmHg 45%
    16:00 +20°C° 0 mm 5 mps 748 mmHg 47%
    17:00 +20°C° 0 mm 5 mps 748 mmHg 49%
    18:00 +18°C° 0 mm 4 mps 748 mmHg 56%
    19:00 +16°C° 0 mm 3 mps 748 mmHg 63%
    20:00 +14°C° 0 mm 2 mps 748 mmHg 70%
    21:00 +14°C° 0 mm 2 mps 748 mmHg 72%
    22:00 +13°C° 0 mm 2 mps 748 mmHg 75%
    23:00 +13°C° 0 mm 2 mps 748 mmHg 77%

    Day after tomorrow, 23 September, Monday

    Time Temperature Precipitation Wind Pressure Humidity
    00:00 +12°C° 0 mm 2 mps 748 mmHg 80%
    01:00 +12°C° 0 mm 2 mps 748 mmHg 82%
    02:00 +12°C° 0 mm 2 mps 749 mmHg 85%
    03:00 +10°C° 0 mm 2 mps 749 mmHg 88%
    04:00 +10°C° 0 mm 2 mps 749 mmHg 91%
    05:00 +10°C° 0 mm 2 mps 749 mmHg 94%
    06:00 +10°C° 0 mm 3 mps 749 mmHg 89%
    07:00 +11°C° 0 mm 3 mps 750 mmHg 84%
    08:00 +12°C° 0 mm 4 mps 750 mmHg 79%
    09:00 +12°C° 0 mm 4 mps 750 mmHg 73%
    10:00 +13°C° 0 mm 4 mps 750 mmHg 68%
    11:00 +14°C° 0 mm 3 mps 751 mmHg 62%
    12:00 +14°C° 0 mm 3 mps 750 mmHg 60%
    13:00 +16°C° 0 mm 3 mps 750 mmHg 58%
    14:00 +16°C° 0 mm 3 mps 750 mmHg 56%
    15:00 +16°C° 0 mm 3 mps 749 mmHg 56%
    16:00 +14°C° 0 mm 3 mps 749 mmHg 56%
    17:00 +14°C° 0 mm 4 mps 749 mmHg 56%
    18:00 +14°C° 0 mm 4 mps 749 mmHg 55%
    19:00 +13°C° 0 mm 4 mps 750 mmHg 54%
    20:00 +12°C° 0 mm 4 mps 750 mmHg 53%
    21:00 +12°C° 0 mm 4 mps 750 mmHg 51%
    22:00 +12°C° 0 mm 4 mps 750 mmHg 49%
    23:00 +12°C° 0 mm 3 mps 750 mmHg 47%

    24 September, Tuesday

    Time Temperature Precipitation Wind Pressure Humidity
    00:00 +12°C° 0 mm 4 mps 750 mmHg 46%
    01:00 +12°C° 0 mm 4 mps 750 mmHg 45%
    02:00 +11°C° 0 mm 4 mps 750 mmHg 44%
    03:00 +11°C° 0 mm 4 mps 750 mmHg 49%
    04:00 +10°C° 0 mm 4 mps 750 mmHg 53%
    05:00 +8°C° 0 mm 4 mps 749 mmHg 57%
    06:00 +10°C° 0 mm 4 mps 749 mmHg 59%
    07:00 +10°C° 0 mm 4 mps 749 mmHg 60%
    08:00 +10°C° 0 mm 4 mps 749 mmHg 61%
    09:00 +12°C° 0 mm 4 mps 749 mmHg 57%
    10:00 +14°C° 0 mm 4 mps 749 mmHg 54%
    11:00 +16°C° 0 mm 5 mps 749 mmHg 50%
    12:00 +18°C° 0 mm 4 mps 749 mmHg 49%
    13:00 +19°C° 0 mm 4 mps 748 mmHg 47%
    14:00 +20°C° 0 mm 4 mps 748 mmHg 46%
    15:00 +20°C° 0 mm 4 mps 747 mmHg 48%
    16:00 +19°C° 0 mm 3 mps 747 mmHg 49%
    17:00 +19°C° 0 mm 3 mps 747 mmHg 51%
    18:00 +17°C° 0 mm 4 mps 747 mmHg 54%
    19:00 +15°C° 0 mm 4 mps 747 mmHg 56%
    20:00 +13°C° 0 mm 5 mps 747 mmHg 59%
    21:00 +13°C° 0 mm 4 mps 747 mmHg 63%
    22:00 +12°C° 0 mm 4 mps 747 mmHg 67%
    23:00 +12°C° 0 mm 3 mps 747 mmHg 70%

    25 September, Wednesday

    Time Temperature Precipitation Wind Pressure Humidity
    00:00 +12°C° 0 mm 3 mps 747 mmHg 72%
    01:00 +13°C° 0 mm 2 mps 747 mmHg 73%
    02:00 +13°C° 0 mm 2 mps 746 mmHg 75%
    03:00 +12°C° 0 mm 2 mps 746 mmHg 75%
    04:00 +12°C° 0 mm 2 mps 747 mmHg 76%
    05:00 +10°C° 0 mm 2 mps 747 mmHg 76%
    06:00 +12°C° 0 mm 2 mps 747 mmHg 74%
    07:00 +13°C° 0 mm 2 mps 747 mmHg 72%
    08:00 +14°C° 0 mm 2 mps 747 mmHg 70%
    09:00 +16°C° 0 mm 2 mps 747 mmHg 63%
    10:00 +18°C° 0 mm 2 mps 747 mmHg 57%
    11:00 +20°C° 0 mm 2 mps 747 mmHg 50%
    12:00 +21°C° 0 mm 2 mps 747 mmHg 47%
    13:00 +22°C° 0 mm 1 mps 746 mmHg 43%
    14:00 +23°C° 0 mm 1 mps 746 mmHg 40%
    15:00 +22°C° 0 mm 1 mps 746 mmHg 44%
    16:00 +20°C° 0 mm 2 mps 746 mmHg 47%
    17:00 +20°C° 0 mm 2 mps 745 mmHg 51%
    18:00 +19°C° 0 mm 2 mps 746 mmHg 55%
    19:00 +18°C° 0 mm 3 mps 746 mmHg 59%
    20:00 +17°C° 0 mm 3 mps 746 mmHg 64%
    21:00 +17°C° 0 mm 3 mps 746 mmHg 63%
    22:00 +16°C° 0 mm 3 mps 746 mmHg 63%
    23:00 +16°C° 0 mm 3 mps 746 mmHg 62%

    26 September, Thursday

    Time Temperature Precipitation Wind Pressure Humidity
    00:00 +16°C° 0 mm 3 mps 746 mmHg 62%
    01:00 +16°C° 0 mm 3 mps 746 mmHg 63%
    02:00 +14°C° 0 mm 3 mps 745 mmHg 63%
    03:00 +14°C° 0 mm 3 mps 745 mmHg 64%
    04:00 +15°C° 0 mm 2 mps 745 mmHg 64%
    05:00 +14°C° 0 mm 2 mps 745 mmHg 65%
    06:00 +16°C° 0 mm 3 mps 745 mmHg 59%
    07:00 +17°C° 0 mm 3 mps 745 mmHg 53%
    08:00 +18°C° 0 mm 4 mps 746 mmHg 47%
    09:00 +19°C° 0 mm 4 mps 746 mmHg 45%
    10:00 +20°C° 0 mm 5 mps 746 mmHg 43%
    11:00 +22°C° 0 mm 5 mps 746 mmHg 40%
    12:00 +22°C° 0 mm 5 mps 746 mmHg 40%
    13:00 +22°C° 0 mm 4 mps 745 mmHg 40%
    14:00 +22°C° 0 mm 4 mps 745 mmHg 40%
    15:00 +21°C° 0 mm 4 mps 745 mmHg 45%
    16:00 +20°C° 0 mm 3 mps 745 mmHg 50%
    17:00 +18°C° 0 mm 3 mps 745 mmHg 54%
    18:00 +17°C° 0.1 mm 3 mps 745 mmHg 63%
    19:00 +16°C° 0.1 mm 3 mps 745 mmHg 71%
    20:00 +14°C° 0.1 mm 3 mps 745 mmHg 80%
    21:00 +15°C° 0.5 mm 2 mps 745 mmHg 84%
    22:00 +15°C° 0.5 mm 1 mps 746 mmHg 88%
    23:00 +14°C° 0.5 mm 1 mps 746 mmHg 92%
    Show more